Location: Kelshall
(52.0000°N, 0.0500°W)
Time: 22:34:11
(UTC+00:00)

Cosmos 2266 Rocket - Pass Details

Date: 18 September 2020
Orbit: 934 x 1008 km, 82.9° (Epoch: 20 October)

Event Time Altitude Azimuth Distance (km) Brightness Sun altitude
Rises 20:56:55 0° 351° (N) 3,622 7.7 -24.9°
Reaches altitude 10° 20:59:30 10° 357° (N) 2,666 6.8 -25.2°
Maximum altitude 21:05:26 53° 74° (ENE) 1,141 4.1 -25.9°
Enters shadow 21:05:35 53° 79° (E) 1,143 4.1 -25.9°
